This is the latest recevied weather packets stored in our database for station/object EA3ANS-1. If no packets are shown the sender has not sent any weather packets the latest 10 day(s).
| Time | Temp. | Humidity | Pressure | Rain* | Wind** | Luminosity | Snow |
|---|---|---|---|---|---|---|---|
| 1777546251 | 23.33° C | - | 1016.3 hPa | 0 mm | 2.68 m/s, 186° | - | - |
| 1777545044 | 22.78° C | - | 1016.2 hPa | 0 mm | 2.68 m/s, 86° | - | - |
| 1777544447 | 22.22° C | - | 1016.3 hPa | 0 mm | 3.13 m/s, 113° | - | - |
| 1777543849 | 22.78° C | - | 1016.4 hPa | 0 mm | 2.24 m/s, 172° | - | - |
| 1777543252 | 22.22° C | - | 1016.3 hPa | 0 mm | 4.02 m/s, 150° | - | - |
| 1777542046 | 21.67° C | - | 1016.3 hPa | 0 mm | 3.58 m/s, 198° | - | - |
| 1777541449 | 21.11° C | - | 1016.1 hPa | 0 mm | 1.79 m/s, 231° | - | - |
| 1777540842 | 21.11° C | - | 1016.1 hPa | 0 mm | 0.45 m/s, 194° | - | - |
| 1777540244 | 20.56° C | - | 1016.1 hPa | 0 mm | 1.34 m/s, 139° | - | - |
| 1777539647 | 20° C | - | 1016 hPa | 0 mm | 2.24 m/s, 193° | - | - |
| 1777539040 | 20° C | - | 1016 hPa | 0 mm | 0.89 m/s, 138° | - | - |
| 1777537845 | 20° C | - | 1015.6 hPa | 0 mm | 0 m/s | - | - |
| 1777537238 | 19.44° C | - | 1015.8 hPa | 0 mm | 1.34 m/s, 176° | - | - |
| 1777536635 | 18.33° C | - | 1015.8 hPa | 0 mm | 0.89 m/s, 276° | - | - |
| 1777535436 | 17.78° C | - | 1015.6 hPa | 0 mm | 0.89 m/s, 198° | - | - |
| 1777534838 | 17.22° C | - | 1015.5 hPa | 0 mm | 0.89 m/s, 262° | - | - |
| 1777534241 | 17.22° C | - | 1015.4 hPa | 0 mm | 0.89 m/s, 170° | - | - |
| 1777533644 | 16.67° C | - | 1015.4 hPa | 0 mm | 0.89 m/s, 96° | - | - |
| 1777533046 | 16.11° C | - | 1015.5 hPa | 0 mm | 0.89 m/s, 10° | - | - |
| 1777532443 | 15.56° C | - | 1015.4 hPa | 0 mm | 2.68 m/s, 304° | - | - |
| 1777531249 | 15° C | - | 1015.3 hPa | 0 mm | 1.34 m/s, 8° | - | - |
| 1777530646 | 15.56° C | - | 1015.2 hPa | 0 mm | 1.34 m/s, 100° | - | - |
| 1777530035 | 15° C | - | 1015.1 hPa | 0 mm | 0 m/s | - | - |
| 1777529434 | 14.44° C | - | 1015.1 hPa | 0 mm | 2.24 m/s, 18° | - | - |
| 1777528837 | 14.44° C | - | 1014.7 hPa | 0 mm | 1.79 m/s, 359° | - | - |
* Rain latest hour (hover to see other rain measurements)
** Current wind speed in m/s (hover to see current wind gust speed)